Back to Previous

Regional Weather Roundup

949 
ASUS44 KLZK 232205
RWRLZK

WEATHER ROUNDUP FOR ARKANSAS
NATIONAL WEATHER SERVICE LITTLE ROCK AR
500 PM CDT WED APR 23 2014

NOTE: "FAIR" INDICATES FEW OR NO CLOUDS BELOW 12,000 FEET WITH NO
SIGNIFICANT WEATHER AND/OR OBSTRUCTIONS TO VISIBILITY.

ARZ001-003-010-029-232300-
NORTHWEST ARKANSAS
  
CITY           SKY/WX    TMP DP  RH WIND       PRES   REMARKS
FAYETTEVILLE   SUNNY     78  50  37 S13G18    29.87F                  
FORT SMITH     SUNNY     85  54  34 SE12G20   29.82F                  
HARRISON       SUNNY     78  42  27 SE14      29.89F                  
BENTONVILLE    SUNNY     79  46  31 S9G17     29.87F                  
ROGERS         SUNNY     80  45  28 S15       29.86F                  
SILOAM SPGS    SUNNY     79  52  38 S14       29.86F                  
HIGHFILL       SUNNY     79  48  33 S14G20    29.85F                  
SPRINGDALE     MOSUNNY   79  46  31 SE12G23   29.88F                  
$$

ARZ004-005-016-232300-
NORTH CENTRAL ARKANSAS
  
CITY           SKY/WX    TMP DP  RH WIND       PRES   REMARKS
BATESVILLE     SUNNY     73  46  38 E12       29.93F                  
FLIPPIN        SUNNY     77  43  29 E8        29.90F                  
MTN HOME       SUNNY     77  38  24 SE8       29.90F                  
$$

ARZ040-041-232300-
WEST CENTRAL ARKANSAS
  
CITY           SKY/WX    TMP DP  RH WIND       PRES   REMARKS
MENA           MOSUNNY  N/A N/A N/A SE8       29.88S                  
MOUNT IDA      SUNNY     79  52  38 VRB7      29.86F                  
$$

ARZ009-017-025-026-028-232300-
NORTHEAST ARKANSAS
  
CITY           SKY/WX    TMP DP  RH WIND       PRES   REMARKS
CORNING        FAIR      73  36  25 SE7       29.96F                  
JONESBORO      SUNNY     75  37  25 E8        29.94F                  
NEWPORT        SUNNY     74  44  34 E8        29.95F                  
WALNUT RIDGE   SUNNY     73  37  27 SE10      29.95F                  
BLYTHEVILLE    SUNNY     73  36  25 NE8       29.96F                  
NW BLYTHEVILLE SUNNY     73  39  29 NE5       29.96F                  
$$

ARZ022-023-033-042-044-232300-
CENTRAL ARKANSAS
  
CITY           SKY/WX    TMP DP  RH WIND       PRES   REMARKS
LITTLE ROCK    MOSUNNY   78  45  30 SE9       29.91F                  
N LITTLE ROCK  MOSUNNY   77  48  36 S9G16     29.91F                  
JACKSONVILLE   SUNNY     78  47  33 SE8       29.91F                  
SEARCY         SUNNY     76  46  34 E9        29.94F                  
HOT SPRINGS    SUNNY     81  50  33 S9        29.89F                  
RUSSELLVILLE   SUNNY     79  49  34 E8        29.88F                  
CLINTON        FAIR      77  46  33 SE6       29.91S                  
$$

ARZ036-232300-
EAST ARKANSAS
  
CITY           SKY/WX    TMP DP  RH WIND       PRES   REMARKS
WEST MEMPHIS   SUNNY     77  36  22 VRB3      29.93F                  
$$

ARZ050-053-066-070-073-232300-
SOUTHWEST ARKANSAS
  
CITY           SKY/WX    TMP DP  RH WIND       PRES   REMARKS
ARKADELPHIA    FAIR      83  53  35 SE7       29.88F                  
CAMDEN         SUNNY     82  48  30 MISG      29.88F                  
TEXARKANA      MOSUNNY   82  55  39 S7        29.86F                  
EL DORADO      SUNNY     81  50  33 SE8       29.89F                  
DE QUEEN       SUNNY     82  57  42 SE12      29.83F                  
$$

ARZ056-057-069-232300-
SOUTHEAST ARKANSAS
  
CITY           SKY/WX    TMP DP  RH WIND       PRES   REMARKS
PINE BLUFF     SUNNY     78  50  37 SE7       29.92F                  
STUTTGART      SUNNY     77  43  29 SE8       29.94F                  
MONTICELLO     SUNNY     79  46  31 NE9       29.91F                  

$$




USA.gov is the U.S. government's official web portal to all federal, state and local government web resources and services.